Location: Asheville, NC
(35.6000°N, 82.5500°W)
Time: 08:58:08
(UTC-05:00)

CUTE-I - Pass Details

Date: 11 January 2018
Orbit: 810 x 826 km, 98.7° (Epoch: 18 January)

Event Time Altitude Azimuth Distance (km) Brightness Sun altitude
Rises 18:25:15 0° 177° (S) 3,330 ? -9.9°
Reaches altitude 10° 18:27:38 10° 181° (S) 2,399 ? -10.4°
Maximum altitude 18:32:50 56° 259° (W) 967 ? -11.4°
Drops below altitude 10° 18:38:03 10° 337° (NNW) 2,404 ? -12.4°
Sets 18:40:27 0° 342° (NNW) 3,338 ? -12.8°
